Terminal Aerodrome Forecast
Issued by NWS Detroit/Pontiac, MI

Home | Current Version | Previous Version | Text Only | Print | Product List | Glossary On
Versions: 1 2 3 4 5 6 7 8 9 10 11 12 13 14 15 16 17 18 19 20 21 22 23 24 25 26 27 28 29 30 31
000
FTUS43 KDTX 210720 AAA
TAFDTW
TAF AMD
KDTW 210720Z 2107/2212 32008KT P6SM OVC025
     FM211400 33011G20KT P6SM -SHRA OVC025
     FM211800 34012G21KT P6SM OVC025
     FM212100 34011G19KT P6SM BKN050
     FM220000 36010KT P6SM SCT050=

USA.gov is the U.S. government's official web portal to all federal, state and local government web resources and services.